PBO Station Position Time Series. Reference Frame : NAM14
Format Version,1.1.1
4-character ID,P475
Station name,Point_LomaCS2007
Begin Date, 2007-08-08
End Date, 2023-06-26
Release Date, 2023-06-27
Reference position, 32.6663962639 North Latitude, -117.2439362377 East Longitude, -25.05043 meters elevation,
Date, North (mm), East (mm), Vertical (mm), North Std. Deviation (mm), East Std. Deviation (mm),              Vertical Std. Deviation (mm), Quality,
2007-08-08,0.00, 0.00, 0.00, 1.83, 1.60, 7.28, repro,
2007-08-09,1.08, -0.73, 6.66, 1.83, 1.60, 7.24, repro,
2007-08-10,1.32, 0.04, 6.60, 1.82, 1.59, 7.21, repro,
2007-08-11,0.86, 0.76, 1.66, 1.82, 1.60, 7.20, repro,
2007-08-12,0.91, -0.30, -2.68, 1.83, 1.60, 7.27, repro,
2007-08-13,0.93, -0.61, -4.11, 1.83, 1.60, 7.30, repro,
2007-08-14,1.08, 0.88, -9.01, 1.94, 1.71, 7.74, repro,
2007-08-15,0.66, 1.37, -0.88, 1.95, 1.71, 7.68, repro,
2007-08-16,0.73, 0.32, 5.50, 1.92, 1.65, 7.62, repro,
2007-08-17,1.67, 0.01, -5.15, 1.93, 1.67, 7.76, repro,
2007-08-18,1.09, -0.09, -11.88, 1.97, 1.70, 7.93, repro,
2007-08-19,0.78, 0.41, -7.68, 1.92, 1.69, 7.80, repro,
2007-08-20,1.72, 0.22, -4.31, 1.89, 1.64, 7.56, repro,
2007-08-21,0.81, 0.14, -6.93, 1.95, 1.67, 7.70, repro,
2007-08-22,1.18, 0.56, -2.15, 1.90, 1.65, 7.56, repro,
2007-08-23,1.28, 0.30, 0.24, 1.86, 1.60, 7.38, repro,
2007-08-24,0.84, -0.08, 2.05, 1.97, 1.70, 7.77, repro,
2007-08-25,1.78, -1.06, -8.12, 1.92, 1.68, 7.58, repro,
2007-08-26,2.97, 0.95, 3.06, 1.95, 1.76, 7.86, repro,
2007-08-27,0.92, 1.07, -5.16, 1.94, 1.74, 7.74, repro,
2007-08-28,0.36, 0.21, 0.85, 1.92, 1.70, 7.60, repro,
2007-08-29,0.87, 0.16, -9.51, 1.91, 1.68, 7.57, repro,
2007-08-30,1.49, -0.62, -5.66, 1.91, 1.69, 7.58, repro,
2007-08-31,2.10, -0.47, -9.45, 1.91, 1.71, 7.63, repro,
2007-09-01,0.84, 1.68, -3.26, 1.91, 1.70, 7.62, repro,
2007-09-02,1.37, -0.44, 3.99, 1.92, 1.72, 7.70, repro,
2007-09-03,1.44, -1.10, -10.70, 1.92, 1.70, 7.65, repro,
2007-09-04,2.18, 0.04, -5.76, 1.90, 1.68, 7.56, repro,
2007-09-05,0.88, -0.54, 6.50, 1.91, 1.69, 7.55, repro,
2007-09-06,2.70, -0.08, 0.50, 1.91, 1.71, 7.61, repro,
2007-09-07,2.75, -0.11, 0.00, 1.92, 1.71, 7.68, repro,
2007-09-08,1.96, 0.99, -4.12, 1.97, 1.81, 8.02, repro,
2007-09-09,1.02, -1.13, 6.87, 2.04, 1.84, 8.06, repro,
2007-09-10,1.92, -0.64, -2.44, 2.16, 1.94, 8.80, repro,
2007-09-11,1.95, 0.88, 3.01, 1.93, 1.70, 7.61, repro,
2007-09-12,2.17, 0.28, -7.64, 1.98, 1.74, 7.79, repro,
2007-09-13,0.25, -0.42, -2.21, 2.01, 1.71, 7.86, repro,
2007-09-14,0.95, 1.08, -7.87, 1.96, 1.73, 7.72, repro,
2007-09-15,1.45, -1.36, 6.86, 2.01, 1.69, 7.89, repro,
2007-09-16,0.91, -1.95, 4.09, 2.00, 1.70, 7.81, repro,
2007-09-17,1.95, -0.79, -0.09, 2.00, 1.81, 8.02, repro,
2007-09-18,1.39, -0.16, -1.73, 1.96, 1.75, 7.81, repro,
2007-09-19,1.55, -0.07, -3.42, 1.84, 1.61, 7.33, repro,
2007-09-20,0.90, 0.33, 0.74, 1.88, 1.64, 7.43, repro,
2007-09-21,1.05, -0.50, 3.53, 1.93, 1.68, 7.69, repro,
2007-09-22,0.91, -0.72, 7.05, 1.90, 1.63, 7.58, repro,
2007-09-23,1.32, -0.47, 3.17, 1.91, 1.66, 7.65, repro,
2007-09-24,1.10, -0.19, -1.86, 2.04, 1.74, 8.06, repro,
2007-09-25,1.39, -0.35, -7.54, 1.92, 1.65, 7.60, repro,
2007-09-26,1.36, -0.30, 1.47, 1.92, 1.61, 7.60, repro,
2007-09-27,0.77, -1.19, 2.63, 1.91, 1.64, 7.61, repro,
2007-09-28,0.86, -0.09, -4.29, 1.94, 1.72, 7.77, repro,
2007-09-29,1.20, -1.10, -0.10, 1.94, 1.73, 7.89, repro,
2007-09-30,0.64, -0.82, 1.75, 1.94, 1.73, 7.86, repro,
2007-10-01,1.76, -1.05, 1.03, 1.88, 1.71, 7.69, repro,
2007-10-02,1.42, -1.66, 1.11, 1.93, 1.76, 7.90, repro,
2007-10-03,2.04, -1.56, 6.74, 1.95, 1.69, 7.81, repro,
2007-10-04,0.80, -0.50, 3.59, 1.92, 1.70, 7.75, repro,
2007-10-05,0.35, -0.50, 5.83, 1.94, 1.77, 8.07, repro,
2007-10-06,1.31, -1.63, 6.41, 1.93, 1.73, 7.85, repro,
2007-10-07,0.58, -0.54, 3.39, 1.98, 1.76, 8.04, repro,
2007-10-08,0.42, -0.59, 1.30, 2.08, 1.80, 8.74, repro,
2007-10-09,0.35, -0.52, 3.91, 2.02, 1.87, 8.37, repro,
2007-10-10,0.01, 0.16, -5.42, 2.01, 1.75, 8.26, repro,
2007-10-11,2.27, -0.43, -0.58, 1.86, 1.72, 7.69, repro,
2007-10-12,1.10, -1.37, 5.26, 1.89, 1.70, 7.67, repro,
2007-10-13,1.25, -1.01, 9.70, 1.84, 1.65, 7.50, repro,
2007-10-14,1.99, -0.50, -2.21, 1.89, 1.69, 7.66, repro,
2007-10-15,0.22, -1.40, 1.59, 1.89, 1.69, 7.66, repro,
2007-10-16,1.20, -1.09, 5.39, 1.84, 1.65, 7.47, repro,
2007-10-17,0.08, -0.98, 13.60, 1.87, 1.69, 7.63, repro,
2007-10-18,0.69, 0.29, 10.80, 1.84, 1.65, 7.47, repro,
2007-10-19,0.85, -0.43, 4.33, 1.86, 1.65, 7.52, repro,
2007-10-20,0.74, 0.44, 5.04, 1.88, 1.69, 7.63, repro,
2007-10-21,-0.40, -0.67, 7.52, 1.85, 1.66, 7.53, repro,
2007-10-22,1.39, 0.17, 4.43, 1.88, 1.69, 7.63, repro,
2007-10-23,1.41, 0.18, 4.10, 1.87, 1.71, 7.72, repro,
2007-10-24,0.14, 0.68, 0.83, 1.91, 1.76, 7.92, repro,
2007-10-25,-0.14, 0.36, 0.81, 1.90, 1.70, 7.67, repro,
2007-10-26,-0.40, 0.45, -3.91, 1.87, 1.70, 7.54, repro,
2007-10-27,0.89, -0.28, -8.29, 1.85, 1.66, 7.53, repro,
2007-10-28,0.46, 0.73, -1.51, 1.85, 1.65, 7.50, repro,
2007-10-29,0.26, 0.70, 0.12, 1.86, 1.65, 7.53, repro,
2007-10-30,-0.05, 0.43, -3.99, 1.85, 1.65, 7.51, repro,
2007-10-31,-0.07, 0.10, -2.81, 1.84, 1.65, 7.47, repro,
2007-11-01,0.08, 0.75, -3.84, 1.82, 1.63, 7.33, repro,
2007-11-02,-0.02, -0.17, -2.40, 1.81, 1.61, 7.26, repro,
2007-11-03,0.35, 0.17, -0.28, 1.83, 1.62, 7.33, repro,
2007-11-04,-0.06, 0.11, -0.08, 1.83, 1.61, 7.34, repro,
2007-11-05,0.64, 0.56, -1.71, 1.83, 1.63, 7.36, repro,
2007-11-06,0.41, 0.38, -8.66, 1.90, 1.75, 7.67, repro,
2007-11-07,0.19, -0.81, -2.82, 1.80, 1.61, 7.24, repro,
2007-11-08,0.10, -0.58, -4.49, 1.85, 1.66, 7.48, repro,
2007-11-09,0.02, -0.67, -1.58, 1.86, 1.66, 7.52, repro,
2007-11-10,1.05, -0.26, -8.90, 1.84, 1.63, 7.37, repro,
2007-11-11,0.77, -0.50, -3.43, 1.83, 1.63, 7.38, repro,
2007-11-12,1.02, 0.91, 1.04, 1.82, 1.63, 7.34, repro,
2007-11-13,1.14, -0.37, -1.81, 1.81, 1.61, 7.28, repro,
2007-11-14,1.53, -0.25, -2.66, 1.86, 1.64, 7.42, repro,
2007-11-15,0.58, -0.86, -4.57, 1.86, 1.64, 7.43, repro,
2007-11-16,1.66, -0.62, -4.37, 1.85, 1.65, 7.45, repro,
2007-11-17,0.85, 0.01, -7.11, 1.83, 1.63, 7.41, repro,
2007-11-18,1.32, -0.68, -6.27, 1.81, 1.62, 7.31, repro,
2007-11-19,0.72, -0.18, -3.39, 1.81, 1.61, 7.30, repro,
2007-11-20,1.52, -0.99, -5.09, 1.92, 1.72, 7.56, repro,
2007-11-21,0.76, -0.87, -10.39, 1.88, 1.70, 7.57, repro,
2007-11-22,1.07, -0.85, -12.13, 1.88, 1.70, 7.52, repro,
2007-11-23,1.39, -0.92, 2.16, 1.93, 1.80, 7.71, repro,
2007-11-24,0.92, -0.23, -8.92, 1.89, 1.72, 7.53, repro,
2007-11-25,1.36, -0.27, -2.96, 1.90, 1.72, 7.52, repro,
2007-11-26,1.47, -0.56, -2.32, 1.98, 1.83, 7.94, repro,
2007-11-27,1.23, 0.46, 1.05, 1.88, 1.74, 7.58, repro,
2007-11-28,2.06, 0.93, -8.32, 1.88, 1.71, 7.52, repro,
2007-11-29,1.37, 0.46, -9.59, 1.93, 1.72, 7.79, repro,
2007-11-30,1.39, 0.37, -1.45, 1.91, 1.72, 7.60, repro,
2007-12-01,1.16, -0.05, -2.45, 1.96, 1.79, 7.96, repro,
2007-12-02,1.72, 0.65, -5.37, 2.00, 1.86, 8.05, repro,
2007-12-03,1.36, 0.08, -8.96, 2.05, 1.82, 8.30, repro,
2007-12-04,1.90, 0.92, -7.22, 2.09, 1.97, 8.54, repro,
2007-12-05,0.84, 1.23, -6.99, 2.00, 1.84, 8.28, repro,
2007-12-06,1.71, -0.14, -6.00, 2.12, 1.94, 8.51, repro,
2007-12-07,1.44, -2.04, -3.56, 1.99, 1.84, 8.11, repro,
2007-12-08,1.06, 0.48, 2.24, 2.04, 1.89, 7.99, repro,
2007-12-09,1.80, 0.32, -1.80, 2.31, 2.31, 9.31, repro,
2007-12-10,1.69, -0.50, -5.60, 1.97, 1.81, 7.84, repro,
2007-12-11,0.23, -1.20, -4.69, 2.02, 1.82, 8.06, repro,
2007-12-12,2.38, -0.77, -9.02, 1.97, 1.71, 8.02, repro,
2007-12-13,1.53, 0.13, -10.97, 1.92, 1.70, 7.77, repro,
2007-12-14,0.95, 0.25, -3.53, 1.87, 1.65, 7.53, repro,
2007-12-15,2.08, 1.33, -0.73, 1.89, 1.66, 7.60, repro,
2007-12-16,1.56, 0.41, -5.46, 1.89, 1.66, 7.66, repro,
2007-12-17,1.18, -1.10, -3.85, 1.93, 1.69, 7.69, repro,
2007-12-18,2.36, -0.07, -4.11, 1.88, 1.66, 7.56, repro,
2007-12-19,0.76, 1.12, -2.11, 1.90, 1.71, 7.65, repro,
2007-12-20,2.19, -0.56, 1.07, 1.88, 1.65, 7.52, repro,
2007-12-21,2.00, -0.84, 2.48, 1.98, 1.72, 7.94, repro,
2007-12-22,3.03, 0.08, -1.50, 2.00, 1.76, 8.07, repro,
2007-12-23,1.66, 0.20, -4.32, 1.95, 1.73, 7.74, repro,
2007-12-24,2.02, 1.06, 0.58, 1.95, 1.73, 7.72, repro,
2007-12-25,1.26, 0.13, -1.83, 1.90, 1.67, 7.60, repro,
2007-12-26,1.71, -0.31, 3.21, 1.91, 1.68, 7.63, repro,
2007-12-27,1.39, 0.19, 1.75, 1.91, 1.67, 7.61, repro,
2007-12-28,0.72, 0.44, -0.13, 1.95, 1.70, 7.76, repro,
2007-12-29,0.49, -0.42, 0.07, 1.90, 1.64, 7.52, repro,
2007-12-30,0.72, -0.09, -3.64, 1.93, 1.71, 7.72, repro,
2007-12-31,0.29, 0.66, -6.24, 1.88, 1.63, 7.49, repro,
2008-01-01,1.33, 0.10, -7.18, 1.89, 1.63, 7.53, repro,
2008-01-02,1.90, 0.07, -4.77, 1.87, 1.62, 7.46, repro,
2008-01-03,0.84, -0.52, -7.45, 1.89, 1.67, 7.54, repro,
2008-01-04,0.02, -0.26, -4.07, 1.84, 1.58, 7.31, repro,
2008-01-05,-0.58, -0.37, 3.01, 1.84, 1.60, 7.36, repro,
2008-01-06,0.08, -0.42, -0.73, 1.91, 1.71, 7.73, repro,
2008-01-07,1.51, -0.97, -1.56, 1.87, 1.65, 7.60, repro,
2008-01-08,1.42, 0.73, -9.32, 1.89, 1.61, 7.62, repro,
2008-01-09,-0.16, 0.62, -6.71, 1.90, 1.61, 7.61, repro,
2008-01-10,1.10, 0.42, -8.92, 1.84, 1.62, 7.47, repro,
2008-01-11,0.88, -0.11, -5.54, 1.86, 1.62, 7.51, repro,
2008-01-12,1.24, -0.17, -0.07, 1.85, 1.62, 7.49, repro,
2008-01-13,0.94, 0.53, -9.22, 1.83, 1.61, 7.38, repro,
2008-01-14,0.78, 0.77, -4.94, 1.82, 1.60, 7.35, repro,
2008-01-15,1.18, 0.21, -4.42, 1.83, 1.61, 7.36, repro,
2008-01-16,-0.18, 0.40, -8.60, 1.87, 1.62, 7.52, repro,
2008-01-17,0.50, -0.40, -3.65, 1.88, 1.63, 7.58, repro,
2008-01-18,1.41, 1.19, -4.15, 1.84, 1.66, 7.50, repro,
2008-01-19,0.40, 0.94, -8.48, 1.81, 1.61, 7.33, repro,
2008-01-20,-0.87, 0.21, -6.48, 1.83, 1.61, 7.39, repro,
2008-01-21,-1.59, -0.49, -4.82, 1.82, 1.60, 7.29, repro,
2008-01-22,-0.55, -0.20, -6.21, 1.84, 1.61, 7.36, repro,
2008-01-23,0.24, 0.46, -10.73, 1.82, 1.62, 7.33, repro,
2008-01-24,1.09, 1.13, -8.63, 1.82, 1.61, 7.34, repro,
2008-01-25,-0.24, -0.10, -3.31, 1.83, 1.62, 7.35, repro,
2008-01-26,1.46, 0.43, -6.95, 1.82, 1.60, 7.29, repro,
2008-01-27,0.30, 0.50, -2.16, 1.97, 1.74, 8.08, repro,
2008-01-28,0.17, 0.05, -1.04, 1.87, 1.64, 7.48, repro,
2008-01-29,0.44, 0.71, -0.29, 1.90, 1.75, 7.67, repro,
2008-01-30,0.30, 1.48, -3.69, 1.91, 1.70, 7.63, repro,
2008-01-31,0.27, 0.87, -7.82, 1.82, 1.61, 7.33, repro,
2008-02-01,0.84, -0.52, -9.74, 1.82, 1.61, 7.32, repro,
2008-02-02,-0.20, 0.50, -6.37, 1.83, 1.61, 7.37, repro,
2008-02-03,0.18, 0.90, -6.25, 1.82, 1.62, 7.33, repro,
2008-02-04,0.48, 1.65, -3.48, 1.83, 1.62, 7.42, repro,
2008-02-05,1.18, 1.39, -7.90, 1.87, 1.68, 7.55, repro,
2008-02-06,0.89, 0.26, -4.45, 1.86, 1.67, 7.49, repro,
2008-02-07,0.67, 1.26, -6.92, 1.84, 1.63, 7.51, repro,
2008-02-08,0.56, 0.66, -5.05, 1.83, 1.60, 7.33, repro,
2008-02-09,-0.15, 0.99, -4.56, 1.83, 1.61, 7.33, repro,
2008-02-10,0.30, 2.04, -5.70, 1.83, 1.61, 7.32, repro,
2008-02-11,0.60, 0.79, 0.34, 1.83, 1.61, 7.36, repro,
2008-02-12,0.36, 1.72, -1.76, 1.85, 1.68, 7.41, repro,
2008-02-13,-0.12, -0.06, -3.05, 1.82, 1.60, 7.31, repro,
2008-02-14,0.08, 0.96, -4.28, 1.82, 1.61, 7.31, repro,
2008-02-15,0.41, 1.73, -2.19, 1.86, 1.66, 7.41, repro,
2008-02-16,-0.55, 0.44, -1.79, 1.83, 1.61, 7.35, repro,
2008-02-17,-0.56, 0.91, -3.99, 1.83, 1.61, 7.35, repro,
2008-02-18,-0.49, 1.07, -4.75, 1.82, 1.60, 7.27, repro,
2008-02-19,-0.11, 0.54, -1.03, 1.82, 1.60, 7.28, repro,
2008-02-20,-0.54, 0.87, -0.04, 1.86, 1.62, 7.42, repro,
2008-02-21,0.94, 0.72, -1.00, 1.83, 1.62, 7.39, repro,
2008-02-22,-0.19, 0.22, 3.19, 1.84, 1.61, 7.40, repro,
2008-02-23,0.42, 1.44, -3.38, 1.83, 1.61, 7.37, repro,
2008-02-24,-0.15, 0.00, -3.84, 1.84, 1.62, 7.37, repro,
2008-02-25,0.09, 0.49, -1.40, 1.83, 1.61, 7.30, repro,
2008-02-26,0.35, 0.59, -11.13, 1.83, 1.61, 7.32, repro,
2008-02-27,0.18, 1.01, -11.43, 1.86, 1.65, 7.55, repro,
2008-02-28,0.68, -0.97, -8.22, 1.88, 1.69, 7.69, repro,
2008-02-29,0.19, -0.73, -2.07, 1.85, 1.66, 7.54, repro,
2008-03-01,1.34, 0.64, -3.54, 1.86, 1.65, 7.53, repro,
2008-03-02,0.35, -0.55, -5.48, 1.88, 1.68, 7.66, repro,
2008-03-03,1.53, 0.17, -9.07, 1.85, 1.65, 7.58, repro,
2008-03-04,0.36, 0.79, -6.89, 1.85, 1.65, 7.58, repro,
2008-03-05,0.68, -0.20, -3.67, 1.90, 1.72, 7.69, repro,
2008-03-06,1.44, 0.98, -6.87, 1.83, 1.61, 7.38, repro,
2008-03-07,0.92, 1.15, -3.81, 1.83, 1.60, 7.36, repro,
2008-03-08,-0.28, 0.50, -2.43, 1.87, 1.68, 7.74, repro,
2008-03-09,0.11, -0.26, -7.21, 1.86, 1.64, 7.57, repro,
2008-03-10,1.00, 0.42, -5.36, 1.83, 1.60, 7.37, repro,
2008-03-11,1.55, 0.78, -4.23, 1.82, 1.59, 7.27, repro,
2008-03-12,0.98, 0.54, -4.37, 1.85, 1.64, 7.50, repro,
2008-03-13,1.40, -0.54, 3.52, 1.88, 1.68, 7.76, repro,
2008-03-14,0.17, 0.04, -1.50, 1.87, 1.70, 7.81, repro,
2008-03-15,0.01, -0.57, -3.74, 1.86, 1.63, 7.48, repro,
2008-03-16,-0.60, -0.86, -3.43, 1.85, 1.65, 7.53, repro,
2008-03-17,0.53, -0.07, -3.82, 1.93, 1.78, 7.96, repro,
2008-03-18,0.47, -0.33, -2.91, 1.88, 1.68, 7.58, repro,
2008-03-19,1.05, 0.30, -6.13, 1.86, 1.64, 7.48, repro,
2008-03-20,1.42, 0.30, -6.10, 1.91, 1.69, 7.76, repro,
2008-03-21,0.55, -0.89, -7.27, 1.86, 1.63, 7.43, repro,
2008-03-22,1.11, -0.13, -12.37, 1.89, 1.67, 7.63, repro,
2008-03-23,1.28, 0.18, -10.17, 1.90, 1.68, 7.67, repro,
2008-03-24,1.90, -0.22, -1.57, 1.90, 1.73, 7.60, repro,
2008-03-25,1.08, 0.30, -4.13, 1.92, 1.70, 7.64, repro,
2008-03-26,1.44, -0.08, -0.29, 1.91, 1.70, 7.64, repro,
2008-03-27,1.40, -1.60, -4.80, 1.89, 1.68, 7.50, repro,
2008-03-28,1.13, -0.59, -2.52, 1.89, 1.67, 7.47, repro,
2008-03-29,0.37, 0.36, -0.22, 1.85, 1.60, 7.37, repro,
2008-03-30,0.70, 0.36, -1.97, 1.85, 1.60, 7.38, repro,
2008-03-31,0.73, 0.37, -0.21, 1.87, 1.61, 7.46, repro,
2008-04-01,1.14, -0.24, -2.62, 1.86, 1.60, 7.38, repro,
2008-04-02,1.08, -0.19, -1.28, 1.90, 1.60, 7.56, repro,
2008-04-03,1.33, -0.06, -3.35, 1.86, 1.60, 7.37, repro,
2008-04-04,1.11, 0.79, -0.08, 1.85, 1.60, 7.35, repro,
2008-04-05,1.38, 0.04, 2.91, 1.87, 1.61, 7.44, repro,
2008-04-06,1.03, -0.10, -1.06, 1.87, 1.60, 7.38, repro,
2008-04-07,1.05, -0.54, -1.98, 1.86, 1.59, 7.35, repro,
2008-04-08,1.48, -0.85, -1.23, 1.85, 1.61, 7.37, repro,
2008-04-09,0.89, 0.04, 2.12, 1.85, 1.59, 7.34, repro,
2008-04-10,0.85, 0.27, -1.61, 1.86, 1.59, 7.40, repro,
2008-04-11,0.76, 0.09, -4.89, 1.86, 1.60, 7.35, repro,
2008-04-12,1.00, 0.14, -6.70, 1.87, 1.59, 7.39, repro,
2008-04-13,1.42, -0.05, -3.16, 1.86, 1.60, 7.37, repro,
2008-04-14,1.40, -0.63, -3.69, 1.85, 1.59, 7.35, repro,
2008-04-15,1.11, -1.03, 5.88, 1.89, 1.65, 7.53, repro,
2008-04-16,0.89, -0.68, -2.31, 1.89, 1.64, 7.55, repro,
2008-04-17,1.68, -0.13, -8.73, 1.87, 1.59, 7.38, repro,
2008-04-18,1.40, -0.01, -0.58, 1.88, 1.59, 7.40, repro,
2008-04-19,0.82, -0.02, -5.19, 1.86, 1.59, 7.37, repro,
2008-04-20,0.37, 0.38, 0.86, 1.86, 1.58, 7.34, repro,
2008-04-21,0.14, 0.59, -4.78, 1.86, 1.58, 7.33, repro,
2008-04-22,0.12, 0.78, -4.27, 1.88, 1.59, 7.40, repro,
2008-04-23,2.00, 0.34, -4.59, 1.94, 1.67, 7.70, repro,
2008-04-24,0.98, 0.41, -0.30, 1.90, 1.63, 7.59, repro,
2008-04-25,0.97, 1.07, -5.93, 1.88, 1.60, 7.45, repro,
2008-04-26,0.86, 0.51, -3.16, 1.98, 1.67, 7.74, repro,
2008-04-27,0.43, 0.50, -3.71, 2.01, 1.66, 7.89, repro,
2008-04-28,-0.33, 0.21, -4.63, 1.97, 1.62, 7.70, repro,
2008-04-29,0.77, -0.21, -3.03, 2.04, 1.69, 7.89, repro,
2008-04-30,0.65, 0.43, -3.02, 2.12, 1.73, 8.36, repro,
2008-05-01,0.76, 0.33, -1.25, 1.91, 1.62, 7.55, repro,
2008-05-02,0.08, 0.89, -0.87, 1.95, 1.65, 7.60, repro,
2008-05-03,0.17, 0.68, -0.20, 1.92, 1.63, 7.56, repro,
2008-05-04,0.65, 0.54, -1.85, 1.89, 1.59, 7.45, repro,
2008-05-05,0.45, 0.45, -4.47, 1.92, 1.63, 7.61, repro,
2008-05-06,-0.05, 0.59, -4.33, 1.91, 1.63, 7.57, repro,
2008-05-07,0.93, 1.08, 2.66, 1.92, 1.61, 7.47, repro,
2008-05-08,0.87, 0.50, -1.54, 2.08, 1.72, 7.99, repro,
2008-05-09,0.98, 0.37, -3.96, 1.92, 1.62, 7.52, repro,
2008-05-10,0.59, 0.88, 3.47, 1.92, 1.63, 7.58, repro,
2008-05-11,0.85, 0.07, 1.02, 1.91, 1.62, 7.50, repro,
2008-05-12,-0.34, -1.09, 2.07, 1.92, 1.62, 7.56, repro,
2008-05-13,0.54, 0.01, -3.44, 1.92, 1.61, 7.46, repro,
2008-05-14,1.50, 1.22, -5.71, 1.93, 1.63, 7.57, repro,
2008-05-15,0.23, 0.46, -5.05, 1.89, 1.59, 7.44, repro,
2008-05-16,-0.27, 1.77, -7.11, 1.88, 1.59, 7.43, repro,
2008-05-17,0.48, 0.65, -2.63, 1.98, 1.70, 7.66, repro,
2008-05-18,-0.02, 0.50, -1.84, 2.00, 1.63, 7.85, repro,
2008-05-19,0.52, 1.25, -4.32, 1.89, 1.59, 7.42, repro,
2008-05-20,0.84, 1.17, -1.17, 1.92, 1.61, 7.48, repro,
2008-05-21,0.69, 0.40, 4.72, 1.90, 1.63, 7.48, repro,
2008-05-22,-0.19, 1.35, 8.64, 1.97, 1.71, 7.75, repro,
2008-05-23,-0.78, 0.25, 2.11, 1.93, 1.67, 7.66, repro,
2008-05-24,0.16, 1.26, -0.68, 1.92, 1.64, 7.58, repro,
2008-05-25,0.55, 0.53, 1.82, 1.91, 1.64, 7.56, repro,
2008-05-26,-0.24, 0.89, 0.71, 1.92, 1.68, 7.61, repro,
2008-05-27,-0.74, 1.33, 0.07, 1.91, 1.64, 7.59, repro,
2008-05-28,-0.06, 0.86, -0.02, 1.95, 1.68, 7.67, repro,
2008-05-29,0.30, 1.23, -1.44, 1.96, 1.68, 7.70, repro,
2008-05-30,1.38, 2.18, -4.91, 1.98, 1.67, 7.84, repro,
2008-05-31,1.10, 2.57, 2.14, 1.98, 1.65, 7.78, repro,
2008-06-01,1.28, 1.68, -2.26, 1.90, 1.63, 7.51, repro,
2008-06-02,0.45, 1.40, -2.06, 1.90, 1.64, 7.53, repro,
2008-06-03,-0.03, 1.91, 0.39, 1.95, 1.63, 7.61, repro,
2008-06-04,-0.09, 1.28, 3.81, 1.90, 1.64, 7.50, repro,
2008-06-05,0.69, 0.91, 2.22, 1.91, 1.64, 7.56, repro,
2008-06-06,0.81, 1.62, 2.58, 1.90, 1.61, 7.45, repro,
2008-06-07,0.50, 0.77, 6.54, 1.93, 1.67, 7.59, repro,
2008-06-08,1.62, 0.64, 0.30, 1.92, 1.62, 7.43, repro,
2008-06-09,0.73, 0.97, 1.76, 1.92, 1.62, 7.43, repro,
2008-06-10,-0.15, 0.86, -3.77, 1.87, 1.58, 7.31, repro,
2008-06-11,0.18, 0.44, 3.97, 1.89, 1.58, 7.31, repro,
2008-06-12,0.37, 0.17, 0.70, 1.89, 1.62, 7.43, repro,
2008-06-13,0.59, 1.56, 1.45, 1.88, 1.58, 7.28, repro,
2008-06-14,0.68, 1.15, 1.45, 1.93, 1.61, 7.46, repro,
2008-06-15,0.42, 2.43, -4.68, 1.93, 1.61, 7.43, repro,
2008-06-16,0.10, 1.29, -3.69, 1.87, 1.58, 7.29, repro,
2008-06-17,0.39, 0.97, -0.90, 1.88, 1.58, 7.34, repro,
2008-06-18,0.45, 2.06, -0.69, 1.88, 1.58, 7.31, repro,
2008-06-19,1.89, 1.22, -6.37, 1.95, 1.71, 7.67, repro,
2008-06-20,0.13, 1.22, -2.35, 1.89, 1.62, 7.47, repro,
2008-06-21,0.40, 1.75, -5.66, 1.90, 1.65, 7.42, repro,
2008-06-22,0.30, 1.26, -1.57, 1.93, 1.66, 7.48, repro,
2008-06-23,0.51, 0.82, 3.54, 1.92, 1.64, 7.39, repro,
2008-06-24,-0.12, 1.25, -4.80, 1.91, 1.65, 7.39, repro,
2008-06-25,0.17, 0.87, 2.77, 1.91, 1.65, 7.40, repro,
2008-06-26,1.00, 1.72, 2.15, 1.92, 1.69, 7.47, repro,
2008-06-27,1.26, 0.83, 0.67, 1.94, 1.73, 7.71, repro,
2008-06-28,1.93, 1.12, -5.18, 1.92, 1.65, 7.39, repro,
2008-06-29,1.73, 2.03, -4.17, 1.91, 1.64, 7.37, repro,
2008-06-30,0.31, 1.81, -4.37, 1.87, 1.58, 7.27, repro,
2008-07-01,-0.45, 1.05, -0.55, 1.90, 1.64, 7.34, repro,
2008-07-02,0.77, 1.09, -0.14, 1.90, 1.65, 7.39, repro,
2008-07-03,0.67, 0.98, 5.19, 1.89, 1.58, 7.29, repro,
2008-07-04,1.68, 1.21, 3.58, 1.88, 1.58, 7.26, repro,
2008-07-05,0.45, 2.54, -2.03, 1.89, 1.59, 7.31, repro,
2008-07-06,-0.27, 1.02, 7.23, 1.88, 1.58, 7.27, repro,
2008-07-07,0.25, 1.36, 3.68, 1.91, 1.65, 7.38, repro,
2008-07-08,0.73, -0.46, 5.61, 1.89, 1.59, 7.35, repro,
2008-07-09,0.41, 1.35, 0.99, 1.93, 1.66, 7.42, repro,
2008-07-10,1.02, 1.06, 5.64, 2.00, 1.71, 7.71, repro,
2008-07-11,0.71, 3.48, 6.58, 1.98, 1.71, 7.63, repro,
2008-07-12,1.70, 0.91, -4.74, 1.89, 1.58, 7.31, repro,
2008-07-13,2.02, 1.10, -2.30, 1.93, 1.66, 7.47, repro,
2008-07-14,1.12, 0.61, 1.93, 1.92, 1.66, 7.42, repro,
2008-07-15,0.47, 1.55, -0.28, 1.87, 1.58, 7.23, repro,
2008-07-16,0.27, 1.62, -4.13, 1.88, 1.59, 7.32, repro,
2008-07-17,0.10, 1.42, -2.41, 1.87, 1.58, 7.31, repro,
2008-07-18,0.44, -0.71, 5.81, 2.01, 1.62, 7.78, repro,
2008-07-19,1.11, 1.33, 3.27, 1.96, 1.60, 7.67, repro,
2008-07-20,1.71, 1.66, 0.29, 1.95, 1.59, 7.60, repro,
2008-07-21,0.71, 0.75, 2.45, 1.93, 1.62, 7.47, repro,
2008-07-22,0.00, 0.67, 1.50, 1.92, 1.58, 7.42, repro,
2008-07-23,-0.21, 2.25, 2.43, 1.92, 1.58, 7.45, repro,
2008-07-24,-0.00, 1.05, -1.56, 1.98, 1.68, 7.69, repro,
2008-07-25,1.85, 1.24, 1.10, 1.88, 1.58, 7.30, repro,
2008-07-26,0.00, 0.61, 0.54, 1.85, 1.57, 7.22, repro,
2008-07-27,0.31, 0.35, -2.01, 1.87, 1.57, 7.27, repro,
2008-07-28,1.65, 0.13, 8.45, 1.94, 1.59, 7.50, repro,
2008-07-29,1.44, 2.09, 6.99, 1.95, 1.59, 7.58, repro,
2008-07-30,1.28, 1.10, 9.02, 1.96, 1.60, 7.65, repro,
2008-07-31,0.08, 0.09, 10.84, 1.87, 1.57, 7.26, repro,
2008-08-01,0.00, 1.38, 7.20, 1.86, 1.57, 7.24, repro,
2008-08-02,1.56, 0.41, 8.54, 1.87, 1.56, 7.24, repro,
2008-08-03,1.72, -0.27, 3.52, 1.92, 1.61, 7.39, repro,
2008-08-04,2.44, 2.13, 0.43, 1.89, 1.57, 7.31, repro,
2008-08-05,1.06, 1.20, -0.11, 1.88, 1.57, 7.33, repro,
2008-08-06,0.65, 0.83, -3.40, 1.91, 1.58, 7.39, repro,
2008-08-07,0.30, -0.53, 6.66, 1.95, 1.64, 7.46, repro,
2008-08-08,1.25, 0.32, 5.39, 2.01, 1.67, 7.59, repro,
2008-08-09,0.66, 0.44, -3.16, 1.93, 1.58, 7.40, repro,
2008-08-10,1.27, 0.71, -3.71, 1.93, 1.58, 7.41, repro,
2008-08-11,1.43, 1.66, -3.37, 1.93, 1.58, 7.44, repro,
2008-08-12,1.05, 0.61, 0.97, 1.91, 1.58, 7.45, repro,
2008-08-13,0.43, -0.15, 3.02, 2.10, 1.72, 8.23, repro,
2008-08-14,1.05, -0.34, 4.41, 1.93, 1.59, 7.44, repro,
2008-08-15,1.89, 1.62, -6.87, 1.92, 1.58, 7.42, repro,
2008-08-16,1.98, 1.59, -8.07, 1.95, 1.61, 7.53, repro,
2008-08-17,0.83, 2.34, -2.31, 1.91, 1.58, 7.42, repro,
2008-08-18,1.17, 1.03, 0.85, 1.91, 1.58, 7.43, repro,
2008-08-19,1.39, 0.15, 4.40, 1.91, 1.59, 7.43, repro,
2008-08-20,1.25, 1.80, 0.72, 1.92, 1.59, 7.47, repro,
2008-08-21,2.14, 0.39, 3.57, 1.92, 1.58, 7.42, repro,
2008-08-22,2.40, -0.22, 2.41, 1.93, 1.58, 7.44, repro,
2008-08-23,1.32, 0.68, 1.18, 1.91, 1.62, 7.48, repro,
2008-08-24,2.18, -0.15, -0.10, 1.92, 1.61, 7.48, repro,
2008-08-25,1.48, -0.20, 5.38, 2.04, 1.76, 8.02, repro,
2008-08-26,2.14, 0.51, 4.38, 1.94, 1.59, 7.49, repro,
2008-08-27,3.08, -0.60, 6.38, 1.94, 1.62, 7.53, repro,
2008-08-28,2.67, -0.95, 1.31, 2.05, 1.69, 8.03, repro,
2008-08-29,1.84, 0.29, -2.27, 1.97, 1.68, 7.67, repro,
2008-08-30,0.36, -0.82, 9.13, 1.95, 1.62, 7.53, repro,
2008-08-31,0.23, -0.10, -2.11, 1.96, 1.63, 7.61, repro,
2008-09-01,3.20, -0.65, 0.37, 1.98, 1.67, 7.73, repro,
2008-09-02,2.91, 0.08, -3.19, 1.95, 1.64, 7.58, repro,
2008-09-03,1.36, 1.55, 0.51, 1.94, 1.62, 7.50, repro,
2008-09-04,2.87, 0.41, -0.05, 2.05, 1.72, 8.04, repro,
2008-09-05,1.50, -0.18, -7.28, 2.02, 1.65, 7.73, repro,
2008-09-06,1.85, -0.48, 1.82, 1.95, 1.63, 7.62, repro,
2008-09-07,0.04, 0.33, 11.21, 2.00, 1.72, 8.03, repro,
2008-09-08,1.62, -0.39, -5.79, 1.97, 1.67, 7.73, repro,
2008-09-09,0.54, -0.23, -2.15, 1.95, 1.62, 7.62, repro,
2008-09-10,1.28, -0.00, -1.56, 1.98, 1.70, 7.82, repro,
2008-09-11,1.89, -0.72, -4.29, 2.02, 1.76, 8.17, repro,
2008-09-12,1.64, -1.47, 5.40, 2.10, 1.78, 8.54, repro,
2008-09-13,2.13, -0.22, 0.76, 2.03, 1.76, 8.17, repro,
2008-09-14,0.96, 0.17, -1.78, 1.98, 1.71, 7.87, repro,
2008-09-15,0.78, 0.54, -4.19, 1.96, 1.65, 7.62, repro,
2008-09-16,-0.02, -0.80, -1.32, 1.97, 1.70, 7.67, repro,
2008-09-17,-0.13, 0.59, -5.52, 2.03, 1.64, 7.77, repro,
2008-09-18,1.10, 0.90, -3.16, 1.93, 1.58, 7.48, repro,
2008-09-19,1.18, 0.82, -0.42, 1.93, 1.59, 7.50, repro,
2008-09-20,1.36, 1.24, 0.11, 1.93, 1.58, 7.42, repro,
2008-09-21,0.97, -0.33, 1.29, 1.95, 1.62, 7.51, repro,
2008-09-22,0.99, -0.46, -0.32, 1.94, 1.61, 7.58, repro,
2008-09-23,1.86, -0.36, 1.06, 1.93, 1.58, 7.48, repro,
2008-09-24,0.50, 0.59, 0.80, 1.98, 1.67, 7.82, repro,
2008-09-25,0.44, 0.56, 2.75, 1.94, 1.63, 7.62, repro,
2008-09-26,0.09, -0.04, 0.94, 1.92, 1.58, 7.40, repro,
2008-09-27,0.96, 0.22, -0.21, 1.95, 1.61, 7.53, repro,
2008-09-28,1.52, 0.33, -0.92, 1.92, 1.57, 7.43, repro,
2008-09-29,0.41, 0.78, 1.41, 1.99, 1.74, 7.80, repro,
2008-09-30,1.77, 0.52, -2.32, 1.93, 1.59, 7.51, repro,
2008-10-01,1.50, 0.73, -2.05, 1.93, 1.59, 7.48, repro,
2008-10-02,2.07, 0.42, -2.19, 1.96, 1.62, 7.57, repro,
2008-10-03,1.88, -0.44, -0.75, 2.00, 1.67, 7.86, repro,
2008-10-04,0.50, -0.24, 0.48, 1.92, 1.58, 7.41, repro,
2008-10-05,1.76, -0.35, 3.07, 1.93, 1.59, 7.47, repro,
2008-10-06,2.14, 0.52, -1.42, 1.92, 1.59, 7.44, repro,